{"data":{"norad_id":33153,"epoch":"2026-06-20T09:55:05.555136Z","epoch_age_seconds":7970636,"freshness":"OLD","line1":"1 33153U 08034A   26171.41325874 -.00000133  00000+0  00000+0 0  9997","line2":"2 33153   2.7194  80.3377 0003595  60.7301  23.6093  0.99033445 65727","mean_motion":0.99033445,"eccentricity":0.0003595,"inclination_deg":2.7194,"raan_deg":80.3377,"arg_perigee_deg":60.7301,"mean_anomaly_deg":23.6093,"bstar":0,"rev_number":6572,"period_min":1454.0542339005,"perigee_km":36122.074686006,"apogee_km":36152.643327635,"semimajor_km":42515.49600682,"source":"CELESTRAK","updated_at":"2026-06-22T09:00:31.344808Z"}}